This is the latest recevied weather packets stored in our database for station/object HB9KAX-13. If no packets are shown the sender has not sent any weather packets the latest 10 day(s).
| Time | Temp. | Humidity | Pressure | Rain* | Wind** | Luminosity | Snow |
|---|---|---|---|---|---|---|---|
| 1788574200 | 18.89° C | 72% | 1021.3 hPa | 0 mm | - | - | - |
| 1788573600 | 18.33° C | 76% | 1020.9 hPa | 0 mm | - | - | - |
| 1788573000 | 18.33° C | 76% | 1020.8 hPa | 0 mm | - | - | - |
| 1788572400 | 18.89° C | 75% | 1020.9 hPa | 0 mm | - | - | - |
| 1788571800 | 19.44° C | 71% | 1020.8 hPa | 0 mm | - | - | - |
| 1788571200 | 18.89° C | 73% | 1020.9 hPa | 0 mm | - | - | - |
| 1788570600 | 19.44° C | 72% | 1020.8 hPa | 0 mm | - | - | - |
| 1788570000 | 18.89° C | 73% | 1020.8 hPa | 0 mm | - | - | - |
| 1788569400 | 19.44° C | 72% | 1020.9 hPa | 0 mm | - | - | - |
| 1788568802 | 19.44° C | 71% | 1020.7 hPa | 0 mm | - | - | - |
| 1788568200 | 18.89° C | 74% | 1020.8 hPa | 0 mm | - | - | - |
| 1788567600 | 19.44° C | 76% | 1020.6 hPa | 0 mm | - | - | - |
| 1788567000 | 21.11° C | 69% | 1020.5 hPa | 0 mm | - | - | - |
| 1788566400 | 22.22° C | 58% | 1020.6 hPa | 0 mm | - | - | - |
| 1788565800 | 22.22° C | 59% | 1020.4 hPa | 0 mm | - | - | - |
| 1788565200 | 22.78° C | 57% | 1020.6 hPa | 0 mm | - | - | - |
| 1788564600 | 22.78° C | 57% | 1020.5 hPa | 0 mm | - | - | - |
| 1788564000 | 22.78° C | 58% | 1020.4 hPa | 0 mm | - | - | - |
| 1788563400 | 23.33° C | 56% | 1020.5 hPa | 0 mm | - | - | - |
| 1788562800 | 23.33° C | 54% | 1020.4 hPa | 0 mm | - | - | - |
| 1788562200 | 23.89° C | 54% | 1020.4 hPa | 0 mm | - | - | - |
| 1788561600 | 23.89° C | 53% | 1020.3 hPa | 0 mm | - | - | - |
| 1788561000 | 23.89° C | 55% | 1020.2 hPa | 0 mm | - | - | - |
| 1788560400 | 23.89° C | 53% | 1020.4 hPa | 0 mm | - | - | - |
| 1788559800 | 23.89° C | 54% | 1020.6 hPa | 0 mm | - | - | - |
* Rain latest hour (hover to see other rain measurements)
** Current wind speed in m/s (hover to see current wind gust speed)